Hourly Data Report for June 22, 2020

TORONTO CITY
ONTARIO
Current Station Operator: ECCC - MSC

43°40'00.000" N
79°24'00.000" W
112.50 m
6158355
71508
XTO

Download Data

Hourly Data (June 2020)
Hourly Data Report for June 22, 2020
TIME
LST
Temp Definition
°C
Dew Point Definition
°C
Rel Hum Definition
%
Precip. Amount Definition
mm

Wind Dir Definition
10's deg

Wind Spd Definition
km/h
Visibility Definition
km
Stn Press Definition
kPa
Hmdx Definition


Wind Chill Definition


Weather Definition


00:00 23.3 17.2 69 0.0       99.82 29   LegendNANA
01:00 22.3 17.4 74 0.0       99.84 28   LegendNANA
02:00 22.3 17.5 75 0.0       99.89 28   LegendNANA
03:00 21.8 18.0 79 0.0       99.89 28   LegendNANA
04:00 21.1 17.6 81 0.0       99.89 27   LegendNANA
05:00 21.1 17.8 82 0.0       99.89 27   LegendNANA
06:00 22.3 18.2 77 0.0       99.88 28   LegendNANA
07:00 23.8 17.6 68 0.0       99.92 30   LegendNANA
08:00 24.1 17.5 67 0.0       99.92 30   LegendNANA
09:00 24.5 18.0 67 0.0       99.93 31   LegendNANA
10:00 26.5 17.7 58 0.0       99.93 32   LegendNANA
11:00 28.8 16.1 46 0.0       99.94 33   LegendNANA
12:00 28.7 16.4 47 0.0       99.92 34   LegendNANA
13:00 27.0 16.9 54 0.0       99.87 32   LegendNANA
14:00 28.7 17.4 50 0.0       99.79 34   LegendNANA
15:00 30.0 15.8 42 0.0       99.74 34   LegendNANA
16:00 28.4 16.8 49 0.3       99.70 34   LegendNANA
17:00 28.2 16.6 49 0.2       99.65 33   LegendNANA
18:00 25.4 16.6 58 0.0       99.67 30   LegendNANA
19:00 24.8 16.5 60 0.0       99.63 30   LegendNANA
20:00 23.5 18.2 72 0.0       99.63 30   LegendNANA
21:00 23.0 17.9 73 0.0       99.63 29   LegendNANA
22:00 23.4 17.6 70 0.0       99.63 29   LegendNANA
23:00 23.1 17.5 71 0.0       99.57 29   LegendNANA

Notes on Data Quality.

Legend

  • E = Estimated
  • M = Missing
  • NA = Not Available*
  • [empty] = Indicates an unobserved value
Date modified: